Skip Page Navigation
NASA JPL Caltech
NASA Logo - Jet Propulsion Laboratory + View the NASA Portal
+ Center for Near-Earth Object Studies
JPL Home Earth Solar System Stars & Galaxies Technology
JPL Solar System Dynamics
BODIES ORBITS EPHEMERIDES TOOLS PHYSICAL DATA DISCOVERY FAQ SITE MAP
IMPORTANT: The SSD Announcement email list is now available. Major changes are coming in the near future, including possible hostname and/or URL changes. To be notified of such changes, subscribe to this email list.

Please visit this page for more details.


JPL Small-Body Database Browser
Search: [ help ]  
47563 (2000 AW149)
Classification: Main-belt Asteroid          SPK-ID: 2047563
Ephemeris | Orbit Diagram | Orbital Elements | Mission Design | Physical Parameters | Discovery Circumstances | Close-Approach Data ]

[ show orbit diagram ]
Orbital Elements at Epoch 2458600.5 (2019-Apr-27.0) TDB
Reference: JPL 19 (heliocentric ecliptic J2000)
 Element Value Uncertainty (1-sigma)   Units 
e .08172152186895075 3.9214e-08  
a 2.802347537951707 1.5946e-08 au
q 2.573335432344586 1.1317e-07 au
i 9.248698802175344 4.3999e-06 deg
node 168.3858387599829 2.4831e-05 deg
peri 357.682732372627 3.5289e-05 deg
M 351.8072002150221 2.4874e-05 deg
tp 2458639.495209592101
(2019-Jun-04.99520959)
0.00011839 TDB
period 1713.489383555612
4.69
1.4625e-05
4.004e-08
d
yr
n .2100975958502728 1.7932e-09 deg/d
Q 3.031359643558827 1.7249e-08 au
  Orbit Determination Parameters
   # obs. used (total)      1117  
   data-arc span      7531 days (20.62 yr)  
   first obs. used      1998-09-24  
   last obs. used      2019-05-08  
   planetary ephem.      DE431  
   SB-pert. ephem.      SB431-N16  
   condition code      0  
   norm. resid. RMS      .50434  
   source      ORB  
   producer      Otto Matic  
   solution date      2019-May-30 04:36:00  

Additional Information
 Earth MOID = 1.58077 au 
 Jupiter MOID = 1.93826 au 
 T_jup = 3.301 
[ show covariance matrix ]

Ephemeris | Orbit Diagram | Orbital Elements | Mission Design | Physical Parameters | Discovery Circumstances | Close-Approach Data ]

Physical Parameter Table
Parameter Symbol Value Units Sigma Reference Notes
absolute magnitude H 14.4   n/a MPO337638  
diameter diameter 3.179 km 0.945 urn:nasa:pds:neowise_diameters_albedos::2.0[mainbelt] (http://adsabs.harvard.edu/abs/2011ApJ...741...68M)  
geometric albedo albedo 0.400   0.146 urn:nasa:pds:neowise_diameters_albedos::2.0[mainbelt] (http://adsabs.harvard.edu/abs/2011ApJ...741...68M)  

47563 (2000 AW149)          Discovered 2000-Jan-07 by LINEAR at Socorro
Reference: 20020921/Numbers.arcLast Updated: 2004-04-19

[ show close-approach data ]
Alternate Designations
 2000 AW149 = 1998 SV159 
Ephemeris | Orbit Diagram | Orbital Elements | Mission Design | Physical Parameters | Discovery Circumstances | Close-Approach Data ]
ABOUT SSD CREDITS/AWARDS PRIVACY/COPYRIGHT GLOSSARY LINKS
FirstGov 2020-Jan-27 10:39 UT
(server date/time)  
NASA Home Page
Site Manager:   Ryan S. Park
Webmaster  Alan B. Chamberlin